Gwinner, ND

12:16 AM CST on February 20, 2017 (GMT -0600)
Gwinner-melroe

Weather History for KGWR - January, 2014

Change the Weather History Date:

Monday, January 20, 2014

  Actual Average (KP67) Record (KP67)
Temperature  
Mean Temperature 10 °F -  
Max Temperature 32 °F 13 °F 24 °F (1997)
Min Temperature -13 °F 0 °F -2 °F (1998)
Degree Days  
Heating Degree Days 56    
Moisture  
Dew Point 0 °F    
Average Humidity 77    
Maximum Humidity 100    
Minimum Humidity 59    
Precipitation  
Precipitation 0.00 in - - ()
Sea Level Pressure  
Sea Level Pressure 30.21 in    
Wind  
Wind Speed 16 mph (North)    
Max Wind Speed 31 mph    
Max Gust Speed 37 mph    
Visibility 7 miles    
Events      
Averages and records for this station are not official NWS values.
T = Trace of Precipitation, MM = Missing Value Source: NWS Daily Summary

Daily Weather History Graph

Daily Weather History Graph

Search for Another Location

Airport or City:

Trip Planner

Search our weather history database for the weather conditions in past years. The results will help you decide how hot, cold, wet, or windy it might be!

Date:

Astronomy

Jan. 20, 2014 Rise Set
Actual Time 8:05 AM CST 5:18 PM CST
Civil Twilight 7:32 AM CST 5:51 PM CST
Nautical Twilight 6:55 AM CST 6:28 PM CST
Astronomical Twilight 6:19 AM CST 7:03 PM CST
Moon 10:12 PM CST 9:49 AM CST
Length of Visible Light 10h 18m
Length of Day
9h 12m
Waning Gibbous, 82% of the Moon is Illuminated
Jan 20
Waning Gibbous
Jan 23
Last Quarter
Jan 30
New
Feb 6
First Quarter
Feb 14
Full

Hourly Weather History & Observations

Time (CST) Temp. Windchill Dew Point Humidity Pressure Visibility Wind Dir Wind Speed Gust Speed Precip Events Conditions
12:15 AM 32.0 °F 22.1 °F 28.4 °F 87% 29.76 in 10.0 mi NW 13.8 mph - 0.00 in   Scattered Clouds
12:35 AM 32.0 °F 21.6 °F 28.4 °F 87% 29.77 in 10.0 mi WNW 15.0 mph - 0.00 in   Mostly Cloudy
12:55 AM 32.0 °F 22.5 °F 28.4 °F 87% 29.78 in 10.0 mi WNW 12.7 mph - 0.00 in   Partly Cloudy
1:15 AM 32.0 °F 22.5 °F 28.4 °F 87% 29.78 in 10.0 mi NW 12.7 mph - 0.00 in   Clear
1:35 AM 30.2 °F 21.9 °F 26.6 °F 86% 29.79 in 10.0 mi NW 9.2 mph - 0.00 in   Partly Cloudy
1:55 AM 24.8 °F 14.6 °F 23.0 °F 93% 29.80 in 10.0 mi North 10.4 mph - 0.00 in   Mostly Cloudy
2:15 AM 23.0 °F 13.9 °F 23.0 °F 100% 29.81 in 10.0 mi North 8.1 mph - 0.00 in   Mostly Cloudy
2:35 AM 23.0 °F 10.6 °F 21.2 °F 93% 29.82 in 10.0 mi NNE 13.8 mph - 0.00 in   Overcast
2:55 AM 21.2 °F 10.1 °F 21.2 °F 100% 29.83 in 5.0 mi NNE 10.4 mph - 0.00 in   Overcast
3:15 AM 21.2 °F 9.5 °F 21.2 °F 100% 29.84 in 8.0 mi NE 11.5 mph - 0.00 in   Overcast
3:35 AM 21.2 °F 10.9 °F 19.4 °F 93% 29.84 in 10.0 mi NE 9.2 mph - 0.00 in   Overcast
3:55 AM 21.2 °F 10.9 °F 19.4 °F 93% 29.84 in 10.0 mi NE 9.2 mph - 0.00 in   Overcast
4:15 AM 19.4 °F 6.6 °F 17.6 °F 93% 29.85 in 10.0 mi NE 12.7 mph - 0.00 in   Overcast
4:35 AM 19.4 °F 6.0 °F 17.6 °F 93% 29.86 in 10.0 mi NE 13.8 mph - 0.00 in   Overcast
4:55 AM 17.6 °F 4.3 °F 14.0 °F 86% 29.87 in 10.0 mi NE 12.7 mph - 0.00 in   Overcast
5:15 AM 15.8 °F 1.4 °F 14.0 °F 93% 29.88 in 10.0 mi NNE 13.8 mph - 0.00 in   Overcast
5:35 AM 15.8 °F 0.3 °F 12.2 °F 86% 29.89 in 10.0 mi NNE 16.1 mph - 0.00 in   Overcast
5:55 AM 14.0 °F -1.4 °F 12.2 °F 93% 29.89 in 10.0 mi NNE 15.0 mph - 0.00 in   Overcast
6:15 AM 14.0 °F -2.5 °F 12.2 °F 93% 29.91 in 10.0 mi NNE 17.3 mph - 0.00 in   Overcast
6:35 AM 12.2 °F -5.3 °F 10.4 °F 92% 29.93 in 10.0 mi NNE 18.4 mph - 0.00 in   Overcast
6:55 AM 12.2 °F -6.3 °F 8.6 °F 85% 29.94 in 7.0 mi NNE 20.7 mph - 0.00 in   Overcast
7:15 AM 12.2 °F -6.3 °F 8.6 °F 85% 29.96 in 9.0 mi NNE 20.7 mph 27.6 mph 0.00 in   Overcast
7:35 AM 10.4 °F -9.1 °F 8.6 °F 92% 29.97 in 3.0 mi NNE 21.9 mph - 0.00 in   Overcast
7:55 AM 10.4 °F -8.2 °F 5.0 °F 79% 29.98 in 2.5 mi NNE 19.6 mph 25.3 mph 0.00 in   Overcast
8:15 AM 10.4 °F -8.6 °F 5.0 °F 79% 30.00 in 2.0 mi NNE 20.7 mph - 0.00 in   Overcast
8:35 AM 10.4 °F -7.7 °F 5.0 °F 79% 30.04 in 1.0 mi NNE 18.4 mph - 0.00 in   Overcast
8:55 AM 8.6 °F -10.0 °F 5.0 °F 85% 30.03 in 1.0 mi NNE 18.4 mph - 0.00 in   Overcast
9:15 AM 8.6 °F -13.1 °F 3.2 °F 79% 30.05 in 0.8 mi NNE 26.5 mph 31.1 mph 0.00 in   Overcast
9:35 AM 8.6 °F -13.1 °F 3.2 °F 79% 30.07 in 0.5 mi NNE 26.5 mph 29.9 mph 0.00 in   Overcast
9:55 AM 5.0 °F -18.3 °F 1.4 °F 85% 30.10 in 0.2 mi North 27.6 mph 32.2 mph 0.00 in   Overcast
10:15 AM 5.0 °F -17.1 °F 1.4 °F 85% 30.13 in 0.2 mi North 24.2 mph - 0.00 in   Overcast
10:35 AM 5.0 °F -17.5 °F -0.4 °F 78% 30.15 in 0.2 mi NNE 25.3 mph 34.5 mph 0.00 in   Overcast
10:55 AM 5.0 °F -18.7 °F -0.4 °F 78% 30.18 in 0.2 mi NNE 28.8 mph 32.2 mph 0.00 in   Overcast
11:15 AM 5.0 °F -17.1 °F -0.4 °F 78% 30.20 in 0.2 mi North 24.2 mph 29.9 mph 0.00 in   Overcast
11:35 AM 3.2 °F -20.7 °F -0.4 °F 85% 30.22 in 0.2 mi North 27.6 mph - 0.00 in   Overcast
11:55 AM 3.2 °F -21.8 °F -2.2 °F 78% 30.24 in 0.2 mi North 31.1 mph 35.7 mph 0.00 in   Overcast
12:15 PM 3.2 °F -19.9 °F -0.4 °F 85% 30.26 in 0.5 mi North 25.3 mph 29.9 mph 0.00 in   Overcast
12:35 PM 3.2 °F -21.1 °F -4.0 °F 72% 30.28 in 0.2 mi North 28.8 mph 36.8 mph 0.00 in   Overcast
12:55 PM 3.2 °F -20.7 °F -4.0 °F 72% 30.29 in 0.2 mi North 27.6 mph - 0.00 in   Overcast
1:15 PM 3.2 °F -20.7 °F -4.0 °F 72% 30.31 in 0.5 mi North 27.6 mph 32.2 mph 0.00 in   Overcast
1:35 PM 1.4 °F -23.2 °F -4.0 °F 78% 30.33 in 0.2 mi North 27.6 mph 33.4 mph 0.00 in   Overcast
1:55 PM 1.4 °F -21.9 °F -5.8 °F 72% 30.34 in 0.5 mi North 24.2 mph 32.2 mph 0.00 in   Overcast
2:15 PM 1.4 °F -21.0 °F -7.6 °F 66% 30.36 in 1.0 mi North 21.9 mph 28.8 mph 0.00 in   Overcast
2:35 PM -0.4 °F -23.3 °F -7.6 °F 72% 30.38 in 0.8 mi North 21.9 mph 29.9 mph 0.00 in   Overcast
2:55 PM -0.4 °F -22.8 °F -7.6 °F 72% 30.40 in 1.2 mi North 20.7 mph - 0.00 in   Overcast
3:15 PM -0.4 °F -22.8 °F -7.6 °F 72% 30.41 in 1.8 mi North 20.7 mph - 0.00 in   Overcast
3:35 PM -0.4 °F -23.8 °F -9.4 °F 66% 30.43 in 2.0 mi North 23.0 mph 29.9 mph 0.00 in   Overcast
3:55 PM -0.4 °F -22.3 °F -9.4 °F 66% 30.43 in 8.0 mi North 19.6 mph 26.5 mph 0.00 in   Mostly Cloudy
4:15 PM -2.2 °F -25.7 °F -11.2 °F 66% 30.44 in 9.0 mi North 21.9 mph 26.5 mph 0.00 in   Scattered Clouds
4:35 PM -2.2 °F -25.7 °F -13.0 °F 60% 30.45 in 10.0 mi North 21.9 mph 27.6 mph 0.00 in   Partly Cloudy
4:55 PM -4.0 °F -23.0 °F -13.0 °F 65% 30.47 in 10.0 mi North 12.7 mph 23.0 mph 0.00 in   Clear
5:15 PM -4.0 °F -27.0 °F -13.0 °F 65% 30.49 in 10.0 mi North 19.6 mph 23.0 mph 0.00 in   Mostly Cloudy
5:35 PM -4.0 °F -25.2 °F -13.0 °F 65% 30.50 in 10.0 mi North 16.1 mph - 0.00 in   Partly Cloudy
5:55 PM -4.0 °F -24.5 °F -14.8 °F 60% 30.51 in 10.0 mi NNW 15.0 mph - 0.00 in   Clear
6:15 PM -5.8 °F -26.8 °F -14.8 °F 65% 30.52 in 10.0 mi NNW 15.0 mph - 0.00 in   Clear
6:35 PM -5.8 °F -26.0 °F -14.8 °F 65% 30.54 in 10.0 mi NNW 13.8 mph - 0.00 in   Clear
6:55 PM -5.8 °F -27.5 °F -16.6 °F 60% 30.54 in 10.0 mi NNW 16.1 mph - 0.00 in   Clear
7:15 PM -5.8 °F -26.8 °F -16.6 °F 60% 30.55 in 10.0 mi NNW 15.0 mph - 0.00 in   Clear
7:35 PM -7.6 °F -28.3 °F -16.6 °F 65% 30.55 in 10.0 mi North 13.8 mph - 0.00 in   Clear
7:55 PM -7.6 °F -28.3 °F -16.6 °F 65% 30.55 in 10.0 mi North 13.8 mph - 0.00 in   Clear
8:15 PM -7.6 °F -25.7 °F -18.4 °F 59% 30.54 in 10.0 mi North 10.4 mph - 0.00 in   Clear
8:35 PM -7.6 °F -25.7 °F -18.4 °F 59% 30.54 in 10.0 mi North 10.4 mph - 0.00 in   Clear
8:55 PM -9.4 °F -26.8 °F -18.4 °F 65% 30.54 in 10.0 mi North 9.2 mph - 0.00 in   Clear
9:15 PM -9.4 °F -26.8 °F -18.4 °F 65% 30.54 in 10.0 mi NNW 9.2 mph - 0.00 in   Clear
9:35 PM -9.4 °F -26.8 °F -18.4 °F 65% 30.54 in 10.0 mi North 9.2 mph - 0.00 in   Clear
9:55 PM -9.4 °F -26.8 °F -18.4 °F 65% 30.54 in 10.0 mi NNW 9.2 mph - 0.00 in   Clear
10:15 PM -9.4 °F -25.6 °F -18.4 °F 65% 30.54 in 10.0 mi NNW 8.1 mph - 0.00 in   Clear
10:35 PM -9.4 °F -22.7 °F -18.4 °F 65% 30.55 in 10.0 mi NW 5.8 mph - 0.00 in   Clear
10:55 PM -9.4 °F -24.3 °F -18.4 °F 65% 30.55 in 10.0 mi West 6.9 mph - 0.00 in   Clear
11:15 PM -11.2 °F -24.8 °F -18.4 °F 70% 30.56 in 10.0 mi WSW 5.8 mph - 0.00 in   Clear
11:35 PM -13.0 °F -28.6 °F -20.2 °F 70% 30.55 in 10.0 mi WSW 6.9 mph - 0.00 in   Clear
11:55 PM -13.0 °F -30.0 °F -20.2 °F 70% 30.55 in 10.0 mi WSW 8.1 mph - 0.00 in   Clear